Index of /images/simms

 NameLast modifiedSizeDescription

 Parent Directory   -  
 10058-309-bass-truck..>2020-03-13 23:04 641K 
 10498-040-patch-truc..>2020-03-13 23:04 642K 
 10498-377-patch-truc..>2020-03-13 23:04 766K 
 10498-404-patch-truc..>2020-03-13 23:04 670K 
 10661-093-big-sky-ls..>2020-03-13 23:04 892K 
 10661-093-big-sky-ls..>2020-03-13 23:04 1.0M 
 10661-985-big-sky-ls..>2020-03-13 23:04 829K 
 10673-091-kinetic-ja..>2020-03-13 23:04 972K 
 10673-413-kinetic-ja..>2020-03-13 23:04 497K 
 10673-413-kinetic-ja..>2020-03-13 23:04 474K 
 10674-216-fall-run-j..>2020-03-13 23:04 384K 
 10674-216-fall-run-j..>2020-03-13 23:04 480K 
 10675-216-fall-run-v..>2020-03-13 23:04 353K 
 10675-216-fall-run-v..>2020-03-13 23:04 299K 
 10678-219-blacks-for..>2020-03-13 23:04 1.1M 
 10678-219-blacks-for..>2020-03-13 23:04 1.1M 
 10678-409-blacks-for..>2020-03-13 23:04 1.2M 
 10678-606-blacks-for..>2020-03-13 23:04 1.2M 
 10681-001-rivershed-..>2020-03-13 23:04 885K 
 10681-001-rivershed-..>2020-03-13 23:04 864K 
 10681-302-rivershed-..>2020-03-13 23:04 1.1M 
 10776-015-rogue-flee..>2020-03-13 23:04 206K 
 10776-035-rogue-flee..>2020-03-13 23:04 199K 
 10776-092-rogue-flee..>2020-03-13 23:04 212K 
 10776-216-rogue-flee..>2020-03-13 23:04 504K 
 10777-221-coldweathe..>2020-03-13 23:04 1.0M 
 10777-289-coldweathe..>2020-03-13 23:04 1.0M 
 10777-289-coldweathe..>2020-03-13 23:04 1.1M 
 10777-409-coldweathe..>2020-03-13 23:04 1.0M 
 10777-422-coldweathe..>2020-03-13 23:04 487K 
 10777-607-coldweathe..>2020-03-13 23:04 1.1M 
 10801-285-stone-cold..>2020-03-13 23:04 446K 
 10801-285-stone-cold..>2020-03-13 23:04 466K 
 10801-349-stone-cold..>2020-03-13 23:04 670K 
 10801-447-stone-cold..>2020-03-13 23:04 745K 
 10802-359-ebbtide-ls..>2020-03-13 23:04 305K 
 10802-359-ebbtide-ls..>2020-03-13 23:04 330K 
 10802-451-ebbtide-ls..>2020-03-13 23:04 336K 
 10818-451-ebbtide-ss..>2020-03-13 23:04 330K 
 10818-451-ebbtide-ss..>2020-03-13 23:04 319K 
 10829-205-chunky-bea..>2020-03-13 23:04 612K 
 10829-421-chunky-bea..>2020-03-13 23:04 637K 
 10830-1062-high-crow..>2020-03-13 23:04 593K 
 10840-418-buy-local-..>2020-03-13 23:04 386K 
 10840-418-buy-local-..>2020-03-13 23:04 384K 
 10840-435-buy-local-..>2020-03-13 23:04 118K 
 10871-1058-womens-so..>2020-03-13 23:04 301K 
 10871-1058-womens-so..>2020-03-13 23:04 276K 
 10913-261-coldweathe..>2020-03-13 23:04 3.4M 
 10936-322-womens-sol..>2020-03-13 23:04 252K 
 10936-322-womens-sol..>2020-03-13 23:04 269K 
 10937-428-womens-sol..>2020-03-13 23:04 257K 
 10937-428-womens-sol..>2020-03-13 23:04 280K 
 10937-660-womens-sol..>2020-03-13 23:04 305K 
 11001-409-womens-big..>2020-03-13 23:04 430K 
 11001-409-womens-big..>2020-03-13 23:04 483K 
 11001-418-womens-big..>2020-03-13 23:04 309K 
 11005-054-womens-dri..>2020-03-13 23:04 464K 
 11005-054-womens-dri..>2020-03-13 23:04 539K 
 11031-054-classic-ba..>2020-03-13 23:05 803K 
 11031-404-classic-ba..>2020-03-13 23:04 659K 
 11199-302-downstream..>2020-03-13 23:05 359K 
 11200-302-downstream..>2020-03-13 23:05 373K 
 11240-042-contender-..>2020-03-13 23:05 337K 
 11240-042-contender-..>2020-03-13 23:05 367K 
 11241-042-contender-..>2020-03-13 23:05 206K 
 11241-042-contender-..>2020-03-13 23:05 233K 
 11255-218-corduroy-c..>2020-03-13 23:05 610K 
 11257-001-basic-bean..>2020-03-13 23:05 475K 
 11257-309-basic-bean..>2020-03-13 23:05 475K 
 11258-054-wildcard-k..>2020-03-13 23:05 644K 
 11258-289-wildcard-k..>2020-03-13 23:05 639K 
 11258-418-wildcard-k..>2020-03-13 23:05 599K 
 11258-602-wildcard-k..>2020-03-13 23:05 573K 
 11260-035-womens-fle..>2020-03-13 23:05 696K 
 11260-485-womens-fle..>2020-03-13 23:05 661K 
 11260-603-womens-fle..>2020-03-13 23:05 620K 
 11260-612-womens-fle..>2020-03-13 23:05 703K 
 11266-015-rogue-flee..>2020-03-13 23:05 424K 
 11266-015-rogue-flee..>2020-03-13 23:05 479K 
 11266-216-rogue-flee..>2020-03-13 23:05 488K 
 11267-001-rivershed-..>2020-03-13 23:05 878K 
 11267-001-rivershed-..>2020-03-13 23:05 955K 
 11277-366-womens-woo..>2020-03-13 23:05 599K 
 11277-366-womens-woo..>2020-03-13 23:05 738K 
 11277-489-womens-woo..>2020-03-13 23:05 834K 
 11465-828-dry-creek-..>2020-03-13 23:05 5.8M 
 11466-828-dry-creek-..>2020-03-13 23:05 4.8M 
 11467-042-dry-creek-..>2020-03-13 23:05 3.5M 
 11467-828-dry-creek-..>2020-03-13 23:05 4.2M 
 11468-828-dry-creek-..>2020-03-13 23:05 5.2M 
 11468-828-dry-creek-..>2020-03-13 23:05 387K 
 11471-302-taco-bag-l..>2020-03-13 23:05 574K 
 11471-302-taco-bag-l..>2020-03-13 23:05 841K 
 11472-042-dry-creek-..>2020-03-13 23:05 689K 
 11472-042-dry-creek-..>2020-03-13 23:05 631K 
 11472-828-dry-creek-..>2020-03-13 23:05 935K 
 11558-284-guide-ls-s..>2020-03-13 23:05 461K 
 11558-284-guide-ls-s..>2020-03-13 23:05 519K 
 11558-630-guide-ls-s..>2020-03-13 23:05 446K 
 11561-015-intruder-b..>2020-03-13 23:05 477K 
 11561-015-intruder-b..>2020-03-13 23:05 477K 
 11561-015-intruder-b..>2020-03-13 23:05 477K 
 11561-101-intruder-b..>2020-03-13 23:05 338K 
 11561-418-intruder-b..>2020-03-13 23:05 394K 
 11579-324-transit-ls..>2020-03-13 23:05 694K 
 11579-324-transit-ls..>2020-03-13 23:05 691K 
 11586-043-cotton-twi..>2020-03-13 23:05 576K 
 11586-302-cotton-twi..>2020-03-13 23:05 659K 
 11586-1055-cotton-tw..>2020-03-13 23:05 665K 
 11637-216-rogue-flee..>2020-03-13 23:06 475K 
 11637-216-rogue-flee..>2020-03-13 23:05 495K 
 11648-445-morada-ss-..>2020-03-13 23:06 644K 
 11648-445-morada-ss-..>2020-03-13 23:06 619K 
 11648-744-morada-ss-..>2020-03-13 23:06 601K 
 11649-445-morada-ls-..>2020-03-13 23:06 717K 
 11649-744-morada-ls-..>2020-03-13 23:06 589K 
 11649-744-morada-ls-..>2020-03-13 23:06 629K 
 11650-340-guide-nipp..>2020-03-13 23:06 97K 
 11676-459-woodblock-..>2020-03-13 23:06 420K 
 11676-459-woodblock-..>2020-03-13 23:06 411K 
 11676-602-woodblock-..>2020-03-13 23:06 359K 
 11679-025-woodblock-..>2020-03-13 23:06 697K 
 11679-612-woodblock-..>2020-03-13 23:06 526K 
 11679-612-woodblock-..>2020-03-13 23:06 524K 
 11681-104-woodblock-..>2020-03-13 23:06 445K 
 11681-404-woodblock-..>2020-03-13 23:06 407K 
 11682-043-woodblock-..>2020-03-13 23:06 472K 
 11682-043-woodblock-..>2020-03-13 23:06 478K 
 11682-446-woodblock-..>2020-03-13 23:06 421K 
 11695-217-wading-koo..>2020-03-13 23:06 567K 
 11695-307-wading-koo..>2020-03-13 23:06 457K 
 11695-404-wading-koo..>2020-03-13 23:06 535K 
 11695-421-wading-koo..>2020-03-13 23:06 591K 
 11695-611-wading-koo..>2020-03-13 23:06 465K 
 11695-820-wading-koo..>2020-03-13 23:06 448K 
 11710-015-guide-ls-s..>2020-03-13 23:06 347K 
 11710-015-guide-ls-s..>2020-03-13 23:06 399K 
 11712-041-solarflex-..>2020-03-13 23:06 295K 
 11712-464-solarflex-..>2020-03-13 23:06 323K 
 11712-623-solarflex-..>2020-03-13 23:06 310K 
 11716-025-challenger..>2020-03-13 23:06 364K 
 11716-025-challenger..>2020-03-13 23:06 373K 
 11716-302-challenger..>2020-03-13 23:06 376K 
 11716-413-challenger..>2020-03-13 23:06 363K 
 11718-005-womens-cha..>2020-03-13 23:06 291K 
 11718-005-womens-cha..>2020-03-13 23:06 376K 
 11718-446-womens-cha..>2020-03-13 23:06 412K 
 11789-042-dry-creek-..>2020-03-13 23:06 445K 
 11789-828-dry-creek-..>2020-03-13 23:06 3.7M 
 11789-828-dry-creek-..>2020-03-13 23:06 4.4M 
 11790-025-dry-creek-..>2020-03-13 23:06 634K 
 11791-025-dry-creek-..>2020-03-13 23:06 849K 
 11795-800-guide-lany..>2020-03-13 23:06 200K 
 11838-025-flexfit-5-..>2020-03-13 23:06 640K 
 11840-001-retro-patc..>2020-03-13 23:06 599K 
 11840-245-retro-patc..>2020-03-13 23:06 737K 
 11840-4718-retro-pat..>2020-03-13 23:06 729K 
 11841-054-small-fit-..>2020-03-13 23:06 617K 
 11841-404-small-fit-..>2020-03-13 23:06 643K 
 11843-001-guide-chan..>2020-03-13 23:06 317K 
 11847-050-trout-belt..>2020-03-13 23:06 270K 
 11850-001-river-esse..>2020-03-13 23:06 904K 
 11850-001-river-esse..>2020-03-13 23:06 741K 
 11881-025-womens-lar..>2020-03-13 23:06 136K 
 11881-459-womens-lar..>2020-03-13 23:06 125K 
 11891-054-womens-gui..>2020-03-13 23:06 520K 
 11891-485-womens-gui..>2020-03-13 23:06 429K 
 11891-485-womens-gui..>2020-03-13 23:06 545K 
 11892-025-womens-col..>2020-03-13 23:06 453K 
 11892-025-womens-col..>2020-03-13 23:06 496K 
 11893-054-womens-dri..>2020-03-13 23:06 1.0M 
 11893-054-womens-dri..>2020-03-13 23:06 646K 
 11893-364-womens-dri..>2020-03-13 23:06 593K 
 11893-446-womens-dri..>2020-03-13 23:07 541K 
 11896-006-gallatin-f..>2020-03-13 23:07 1.4M 
 11896-006-gallatin-f..>2020-03-13 23:07 1.6M 
 11896-409-gallatin-f..>2020-03-13 23:07 1.4M 
 11896-606-gallatin-f..>2020-03-13 23:07 1.6M 
 11897-011-stillwater..>2020-03-13 23:07 1.7M 
 11897-011-stillwater..>2020-03-13 23:07 1.7M 
 11897-405-stillwater..>2020-03-13 23:07 1.4M 
 11898-368-guide-flan..>2020-03-13 23:07 1.2M 
 11898-368-guide-flan..>2020-03-13 23:07 1.2M 
 11898-409-guide-flan..>2020-03-13 23:07 1.3M 
 11898-606-guide-flan..>2020-03-13 23:07 1.2M 
 11900-001-rivershed-..>2020-03-13 23:07 655K 
 11900-001-rivershed-..>2020-03-13 23:07 710K 
 11900-040-rivershed-..>2020-03-13 23:07 1.0M 
 11900-205-rivershed-..>2020-03-13 23:07 1.0M 
 11900-302-rivershed-..>2020-03-13 23:07 906K 
 11906-025-guide-plie..>2020-03-13 23:07 1.0M 
 11906-025-guide-plie..>2020-03-13 23:07 311K 
 11906-805-guide-plie..>2020-03-13 23:07 1.0M 
 11906-805-guide-plie..>2020-03-13 23:07 190K 
 11912-005-guide-wind..>2020-03-13 23:07 745K 
 11913-005-guide-wind..>2020-03-13 23:07 569K 
 11914-005-guide-wind..>2020-03-13 23:07 345K 
 11926-054-guide-ther..>2020-03-13 23:07 701K 
 11927-042-guide-midw..>2020-03-13 23:07 700K 
 11928-054-guide-ligh..>2020-03-13 23:07 599K 
 11929-042-guide-ligh..>2020-03-13 23:07 470K 
 11930-054-guide-wet-..>2020-03-13 23:07 495K 
 11931-499-womens-gui..>2020-03-13 23:07 600K 
 11932-448-womens-gui..>2020-03-13 23:07 680K 
 11939-001-exstream-b..>2020-03-13 23:07 606K 
 11939-001-exstream-b..>2020-03-13 23:07 245K 
 11940-001-exstream-b..>2020-03-13 23:07 1.5M 
 11940-001-exstream-b..>2020-03-13 23:07 244K 
 11941-033-g4z-bootfo..>2020-03-13 23:07 1.1M 
 11942-033-g4z-bootfo..>2020-03-13 23:07 274K 
 11943-001-buy-local-..>2020-03-13 23:07 548K 
 11943-218-buy-local-..>2020-03-13 23:07 717K 
 11943-404-buy-local-..>2020-03-13 23:07 574K 
 11944-035-small-fit-..>2020-03-13 23:07 672K 
 11953-286-stillwater..>2020-03-13 23:07 340K 
 11953-286-stillwater..>2020-03-13 23:07 373K 
 11953-309-stillwater..>2020-03-13 23:07 440K 
 11955-001-utility-le..>2020-03-13 23:07 156K 
 11961-041-solarflex-..>2020-03-13 23:07 275K 
 11962-055-deyoung-wa..>2020-03-13 23:07 424K 
 11963-404-deyoung-ta..>2020-03-13 23:07 526K 
 11963-404-deyoung-ta..>2020-03-13 23:07 455K 
 11964-043-stockton-b..>2020-03-13 23:07 179K 
 11969-100-bass-boat-..>2020-03-13 23:07 322K 
 11970-025-bass-boat-..>2020-03-13 23:07 663K 
 11971-413-bass-heart..>2020-03-13 23:07 458K 
 11972-001-bass-heart..>2020-03-13 23:07 407K 
 11973-001-buy-local-..>2020-03-13 23:08 464K 
 11973-001-buy-local-..>2020-03-13 23:08 455K 
 11973-025-buy-local-..>2020-03-13 23:08 510K 
 11973-025-buy-local-..>2020-03-13 23:08 549K 
 11973-043-buy-local-..>2020-03-13 23:08 119K 
 11973-043-buy-local-..>2020-03-13 23:08 124K 
 11974-100-buy-local-..>2020-03-13 23:08 84K 
 11974-100-buy-local-..>2020-03-13 23:08 107K 
 11975-104-classic-st..>2020-03-13 23:08 265K 
 11975-354-classic-st..>2020-03-13 23:08 309K 
 11976-1073-fast-bass..>2020-03-13 23:08 858K 
 11976-1073-fast-bass..>2020-03-13 23:08 855K 
 11976-1074-fast-bass..>2020-03-13 23:08 187K 
 11978-001-fast-bass-..>2020-03-13 23:08 435K 
 11978-025-fast-bass-..>2020-03-13 23:08 113K 
 11978-025-fast-bass-..>2020-03-13 23:08 120K 
 11978-043-fast-bass-..>2020-03-13 23:08 93K 
 11978-043-fast-bass-..>2020-03-13 23:08 97K 
 11978-100-fast-bass-..>2020-03-13 23:08 102K 
 11978-100-fast-bass-..>2020-03-13 23:08 109K 
 11979-043-fast-tarpo..>2020-03-13 23:08 93K 
 11979-043-fast-tarpo..>2020-03-13 23:08 89K 
 11979-100-fast-tarpo..>2020-03-13 23:08 100K 
 11979-100-fast-tarpo..>2020-03-13 23:08 92K 
 11979-421-fast-tarpo..>2020-03-13 23:08 557K 
 11979-421-fast-tarpo..>2020-03-13 23:08 586K 
 11980-001-fast-trout..>2020-03-13 23:08 434K 
 11980-001-fast-trout..>2020-03-13 23:08 455K 
 11980-043-fast-trout..>2020-03-13 23:08 118K 
 11980-043-fast-trout..>2020-03-13 23:08 118K 
 11980-404-fast-trout..>2020-03-13 23:08 94K 
 11980-404-fast-trout..>2020-03-13 23:08 94K 
 11981-001-simms-bass..>2020-03-13 23:08 95K 
 11981-001-simms-bass..>2020-03-13 23:08 103K 
 11981-025-simms-bass..>2020-03-13 23:08 127K 
 11981-043-simms-bass..>2020-03-13 23:08 115K 
 11981-043-simms-bass..>2020-03-13 23:08 118K 
 11981-100-simms-bass..>2020-03-13 23:08 88K 
 11981-100-simms-bass..>2020-03-13 23:08 96K 
 11981-404-simms-bass..>2020-03-13 23:08 87K 
 11981-404-simms-bass..>2020-03-13 23:08 97K 
 11982-043-simms-tarp..>2020-03-13 23:08 115K 
 11982-043-simms-tarp..>2020-03-13 23:08 118K 
 11982-404-simms-tarp..>2020-03-13 23:08 88K 
 11982-404-simms-tarp..>2020-03-13 23:08 96K 
 11982-459-simms-tarp..>2020-03-13 23:08 361K 
 11982-459-simms-tarp..>2020-03-13 23:08 331K 
 11983-043-simms-trou..>2020-03-13 23:08 115K 
 11983-043-simms-trou..>2020-03-13 23:08 118K 
 11983-309-simms-trou..>2020-03-13 23:08 108K 
 11983-309-simms-trou..>2020-03-13 23:08 113K 
 11983-404-simms-trou..>2020-03-13 23:08 88K 
 11983-404-simms-trou..>2020-03-13 23:08 95K 
 11990-025-simms-trou..>2020-03-13 23:08 172K 
 11990-061-simms-trou..>2020-03-13 23:08 210K 
 11991-100-simms-trou..>2020-03-13 23:08 325K 
 11991-100-simms-trou..>2020-03-13 23:08 307K 
 11994-404-simms-trou..>2020-03-13 23:08 88K 
 11994-404-simms-trou..>2020-03-13 23:08 102K 
 11995-055-weekend-ba..>2020-03-13 23:08 379K 
 11995-055-weekend-ba..>2020-03-13 23:08 317K 
 11996-309-weekend-mu..>2020-03-13 23:08 447K 
 11996-309-weekend-mu..>2020-03-13 23:08 394K 
 11997-404-weekend-tr..>2020-03-13 23:08 400K 
 11997-404-weekend-tr..>2020-03-13 23:08 382K 
 11998-104-weekend-tu..>2020-03-13 23:08 95K 
 11998-104-weekend-tu..>2020-03-13 23:08 128K 
 11999-309-womens-lar..>2020-03-13 23:08 382K 
 11999-1072-womens-la..>2020-03-13 23:08 576K 
 12001-061-womens-cla..>2020-03-13 23:08 482K 
 12001-511-womens-cla..>2020-03-13 23:08 537K 
 12002-061-womens-cls..>2020-03-13 23:08 318K 
 12002-404-womens-cls..>2020-03-13 23:08 98K 
 12003-061-womens-usa..>2020-03-13 23:08 462K 
 12004-612-womens-woo..>2020-03-13 23:08 448K 
 12005-061-womens-wdb..>2020-03-13 23:08 108K 
 12005-713-womens-wdb..>2020-03-13 23:08 89K 
 12006-100-woodblock-..>2020-03-13 23:08 264K 
 12006-100-woodblock-..>2020-03-13 23:08 252K 
 12007-061-woodblock-..>2020-03-13 23:08 763K 
 12007-061-woodblock-..>2020-03-13 23:08 746K 
 12008-216-woodblock-..>2020-03-13 23:08 497K 
 12008-216-woodblock-..>2020-03-13 23:08 535K 
 12009-404-woodblock-..>2020-03-13 23:08 515K 
 12009-404-woodblock-..>2020-03-13 23:08 427K 
 12014-1063-fish-skin..>2020-03-13 23:08 334K 
 12014-1064-fish-skin..>2020-03-13 23:08 323K 
 12014-1065-fish-skin..>2020-03-13 23:08 304K 
 12014-1066-fish-skin..>2020-03-13 23:08 309K 
 12014-1068-fish-skin..>2020-03-13 23:08 305K 
 12015-800-headwaters..>2020-03-13 23:08 111K 
 12016-800-headwaters..>2020-03-13 23:08 149K 
 12017-800-headwaters..>2020-03-13 23:08 173K 
 12018-1067-headwater..>2020-03-13 23:08 77K 
 12019-050-simms-pinc..>2020-03-13 23:08 211K 
 12020-001-simms-bott..>2020-03-13 23:08 330K 
 12020-302-simms-bott..>2020-03-13 23:08 296K 
 12020-413-simms-bott..>2020-03-13 23:08 273K 
 12044-001-bounty-hun..>2020-03-13 23:08 515K 
 12096-100-larko-redf..>2020-03-13 23:08 320K 
 12096-100-larko-redf..>2020-03-13 23:08 269K 
 12097-001-stockton-m..>2020-03-13 23:08 96K 
 12097-001-stockton-m..>2020-03-13 23:08 113K 
 12110-091-camo-bottl..>2020-03-13 23:08 300K 
 12110-377-camo-bottl..>2020-03-13 23:08 294K 
 12110-467-camo-bottl..>2020-03-13 23:08 272K 
 12113-805-wall-bottl..>2020-03-13 23:08 191K 
 12114-050-license-pl..>2020-03-13 23:08 328K 
 12115-091-microfiber..>2020-03-13 23:08 934K 
 12138-1056-cotton-tw..>2020-03-13 23:03 647K 
 12138-1057-cotton-tw..>2020-03-13 23:03 708K 
 STC11-025-tarpon-tru..>2020-03-13 23:03 703K 
 STC11-304-tarpon-tru..>2020-03-13 23:03 600K 
 TR08-304-trout-truck..>2020-03-13 23:04 594K 
 TR08-810-trout-truck..>2020-03-13 23:04 599K